DW5212 Weather Reports


time (UTC)temp
C
wind
direction
speed
KPH
gust
KPH
rain 1hr
cm
rain 24hr
cm
rain mn
cm
humidity
%
barometer
mb
20260903205503 35 190 1.6 6.4 0.00 0.00 0.00 54 1013.6
20260903205003 35 190 3.2 11.3 0.00 0.00 0.00 51 1013.7
20260903204504 35 112 3.2 8.0 0.00 0.00 0.00 50 1013.8
20260903204004 35 193 3.2 8.0 0.00 0.00 0.00 52 1013.8
20260903203008 35 115 3.2 8.0 0.00 0.00 0.00 51 1013.8
20260903202503 35 140 3.2 8.0 0.00 0.00 0.00 52 1013.8
20260903202004 35 273 3.2 8.0 0.00 0.00 0.00 52 1013.7
20260903201503 35 103 1.6 9.7 0.00 0.00 0.00 52 1013.7
20260903201004 35 34 1.6 4.8 0.00 0.00 0.00 52 1013.7
20260903200504 35 113 1.6 9.7 0.00 0.00 0.00 54 1013.8
20260903200005 35 225 4.8 12.9 0.00 0.00 0.00 52 1013.9
20260903195503 35 230 3.2 12.9 0.00 0.00 0.00 55 1014.0
20260903195004 34 321 1.6 4.8 0.00 0.00 0.00 55 1014.0
20260903194503 34 52 0.0 4.8 0.00 0.00 0.00 58 1014.1
20260903193505 35 27 0.0 4.8 0.00 0.00 0.00 55 1014.1
20260903193008 35 33 0.0 1.6 0.00 0.00 0.00 56 1014.3
20260903192503 35 33 0.0 3.2 0.00 0.00 0.00 56 1014.3
20260903192004 35 44 0.0 3.2 0.00 0.00 0.00 56 1014.3
20260903191504 34 82 0.0 0.0 0.00 0.00 0.00 58 1014.4
20260903191004 35 110 1.6 4.8 0.00 0.00 0.00 59 1014.5
20260903190503 35 117 1.6 8.0 0.00 0.00 0.00 57 1014.6
20260903190007 35 234 1.6 8.0 0.00 0.00 0.00 57 1014.6
20260903185503 34 273 1.6 6.4 0.00 0.15 0.00 58 1014.9
20260903184503 33 192 0.0 6.4 0.00 0.15 0.00 58 1014.9
20260903184005 33 70 0.0 0.0 0.00 0.15 0.00 61 1014.9
20260903183503 33 132 0.0 1.6 0.00 0.15 0.00 60 1014.7
20260903183006 33 90 1.6 3.2 0.00 0.15 0.00 60 1014.7
20260903182504 33 346 1.6 3.2 0.00 0.15 0.00 59 1014.9
20260903182004 33 38 0.0 4.8 0.00 0.15 0.00 62 1014.9
20260903181504 33 39 1.6 6.4 0.00 0.15 0.00 61 1015.1
20260903181003 33 92 1.6 6.4 0.00 0.15 0.00 59 1015.2
20260903180502 33 351 1.6 4.8 0.00 0.15 0.00 58 1015.2
20260903175006 33 94 0.0 3.2 0.00 1.14 0.00 62 1015.5
20260903174503 33 224 0.0 3.2 0.00 1.14 0.00 62 1015.4
20260903174003 33 223 0.0 3.2 0.00 1.14 0.00 60 1015.5
20260903173503 33 223 1.6 4.8 0.00 1.14 0.00 61 1015.6
20260903173007 33 223 1.6 4.8 0.00 1.14 0.00 58 1015.6
20260903172504 34 244 1.6 6.4 0.00 1.14 0.00 58 1015.6
20260903171505 34 120 3.2 6.4 0.00 1.14 0.00 58 1015.7
20260903171004 33 104 3.2 4.8 0.00 1.14 0.00 58 1015.7
20260903170503 33 140 3.2 4.8 0.00 1.14 0.00 59 1015.8
20260903170004 33 38 3.2 6.4 0.00 1.14 0.00 58 1015.9
20260903165504 33 111 1.6 6.4 0.00 1.14 0.00 62 1015.9
20260903164503 33 297 1.6 4.8 0.00 1.14 0.00 63 1016.1
20260903164004 33 210 1.6 4.8 0.00 1.14 0.00 64 1016.0
20260903163503 32 123 1.6 4.8 0.00 1.14 0.00 65 1016.0
20260903163004 32 154 1.6 4.8 0.00 1.14 0.00 67 1016.0
20260903162504 32 180 1.6 4.8 0.00 1.14 0.00 66 1016.1
20260903162004 32 132 1.6 4.8 0.00 1.14 0.00 67 1016.1
20260903161503 32 132 1.6 6.4 0.00 1.14 0.00 67 1016.1
20260903160503 32 211 1.6 6.4 0.00 1.14 0.00 68 1016.1
20260903155502 31 254 1.6 4.8 0.00 1.14 0.00 70 1016.2
20260903155003 31 140 1.6 6.4 0.00 1.14 0.00 68 1016.2
20260903154503 31 181 1.6 8.0 0.00 1.14 0.00 72 1016.2
20260903154003 31 203 1.6 8.0 0.00 1.14 0.00 72 1016.1
20260903153503 31 205 1.6 6.4 0.00 1.14 0.00 74 1016.3
20260903153007 30 163 1.6 6.4 0.00 1.14 0.00 77 1016.2
20260903152503 30 136 1.6 4.8 0.00 1.14 0.00 79 1016.3
20260903152004 30 146 0.0 4.8 0.00 1.14 0.00 81 1016.1
20260903145003 27 212 0.0 0.0 0.00 1.14 0.00 92 1016.1
20260903144503 27 229 0.0 1.6 0.00 1.14 0.00 93 1016.2
20260903144003 27 228 1.6 6.4 0.00 1.14 0.00 94 1016.2
20260903143503 27 223 0.0 6.4 0.00 1.14 0.00 95 1016.2
20260903143005 26 232 0.0 0.0 0.00 1.14 0.00 96 1016.1
20260903142503 26 217 0.0 0.0 0.00 1.14 0.00 96 1016.1
20260903142004 26 216 0.0 0.0 0.00 1.14 0.00 97 1016.1
20260903141503 25 217 0.0 0.0 0.00 1.14 0.00 97 1016.1
20260903141003 25 216 0.0 0.0 0.00 1.14 0.00 97 1016.1
20260903140502 25 213 0.0 0.0 0.00 1.14 0.00 97 1016.1
20260903140004 25 213 0.0 0.0 0.00 1.14 0.00 97 1016.2
20260903135502 25 213 0.0 0.0 0.00 1.14 0.00 97 1016.2
20260903135004 25 213 0.0 0.0 0.00 1.14 0.00 97 1016.3
20260903134503 24 213 0.0 3.2 0.00 1.14 0.00 97 1016.4
20260903134003 24 213 0.0 3.2 0.00 1.14 0.00 97 1016.4
20260903133502 24 213 0.0 1.6 0.00 1.14 0.00 97 1016.5
20260903133004 24 217 0.0 0.0 0.00 1.14 0.00 97 1016.5
20260903132503 23 217 0.0 0.0 0.00 1.14 0.00 96 1016.4
20260903132004 23 218 0.0 0.0 0.00 1.14 0.00 96 1016.3
20260903131503 23 217 0.0 0.0 0.00 1.14 0.00 97 1016.4
20260903131003 23 218 0.0 0.0 0.00 1.14 0.00 97 1016.4
20260903130003 23 218 0.0 0.0 0.00 1.14 0.00 96 1016.3
20260903125502 23 217 0.0 0.0 0.00 1.14 0.00 96 1016.2
20260903125003 23 286 0.0 1.6 0.00 1.14 0.00 96 1016.1
20260903124003 23 74 0.0 0.0 0.00 1.14 0.00 96 1016.2
20260903123502 23 74 0.0 0.0 0.00 1.14 0.00 96 1016.1
20260903123004 23 74 0.0 1.6 0.00 1.14 0.00 96 1016.1
20260903122502 23 74 0.0 3.2 0.00 1.14 0.00 96 1016.1
20260903122003 23 74 0.0 3.2 0.00 1.14 0.00 96 1016.0
20260903121503 22 79 0.0 0.0 0.00 1.14 0.00 96 1016.0
20260903121004 22 79 0.0 0.0 0.00 1.14 0.00 96 1015.9
20260903120501 22 79 0.0 0.0 0.00 1.14 0.00 96 1015.9
20260903120003 22 79 0.0 0.0 0.00 1.14 0.00 96 1015.9
20260903115502 22 79 0.0 0.0 0.00 1.14 0.00 96 1015.9
20260903115003 22 79 0.0 0.0 0.00 1.14 0.00 96 1015.9
20260903114503 22 79 0.0 0.0 0.00 1.14 0.00 96 1015.9
20260903114003 22 80 0.0 0.0 0.00 1.14 0.00 96 1015.9
20260903113004 22 79 0.0 0.0 0.00 1.14 0.00 96 1015.9
20260903112502 22 79 0.0 0.0 0.00 1.14 0.00 96 1015.8
20260903112003 22 79 0.0 0.0 0.00 1.14 0.00 95 1015.8
20260903111503 22 80 0.0 0.0 0.00 1.14 0.00 95 1015.6
20260903111003 22 79 0.0 0.0 0.00 1.14 0.00 95 1015.7
20260903110500 22 79 0.0 0.0 0.00 1.14 0.00 95 1015.6
20260903110006 22 79 0.0 0.0 0.00 1.14 0.00 95 1015.7
20260903105004 22 79 0.0 0.0 0.00 1.14 0.00 95 1015.6
20260903104005 22 79 0.0 0.0 0.00 1.14 0.00 95 1015.4
20260903103503 22 79 0.0 0.0 0.00 1.14 0.00 95 1015.4
20260903102503 23 79 0.0 0.0 0.00 1.14 0.00 95 1015.3
20260903102004 23 79 0.0 0.0 0.00 1.14 0.00 95 1015.2
20260903101503 23 79 0.0 0.0 0.00 1.14 0.00 95 1015.3
20260903101005 23 79 0.0 0.0 0.00 1.14 0.00 95 1015.2
20260903100503 23 79 0.0 0.0 0.00 1.14 0.00 95 1015.2
20260903100007 23 79 0.0 0.0 0.00 1.14 0.00 95 1015.1
20260903095003 23 79 0.0 0.0 0.00 1.14 0.00 95 1015.0
20260903094503 23 79 0.0 0.0 0.00 1.14 0.00 95 1015.0
20260903094003 23 79 0.0 0.0 0.00 1.14 0.00 95 1015.0
20260903093501 23 79 0.0 0.0 0.00 1.14 0.00 95 1015.0
20260903093003 23 80 0.0 0.0 0.00 1.14 0.00 95 1015.0
20260903092503 23 79 0.0 0.0 0.00 1.14 0.00 95 1015.0
20260903092003 23 79 0.0 0.0 0.00 1.14 0.00 95 1015.1
20260903091502 23 79 0.0 0.0 0.00 1.14 0.00 95 1015.3
20260903091003 23 79 0.0 0.0 0.00 1.14 0.00 95 1015.3
20260903090502 23 79 0.0 0.0 0.00 1.14 0.00 95 1015.3
20260903090005 23 79 0.0 0.0 0.00 1.14 0.00 95 1015.2
20260903085501 23 79 0.0 0.0 0.00 1.14 0.00 95 1015.2
20260903085003 23 79 0.0 0.0 0.00 1.14 0.00 95 1015.2
20260903084503 23 79 0.0 0.0 0.00 1.14 0.00 95 1015.1
20260903084002 23 79 0.0 0.0 0.00 1.14 0.00 95 1015.0
20260903083502 23 79 0.0 0.0 0.00 1.14 0.00 95 1015.0
20260903083005 23 79 0.0 0.0 0.00 1.14 0.00 95 1015.1
20260903082503 23 79 0.0 0.0 0.00 1.14 0.00 95 1015.1
20260903082004 23 79 0.0 0.0 0.00 1.14 0.00 95 1015.0
20260903081503 23 79 0.0 0.0 0.00 1.14 0.00 95 1015.0
20260903081003 23 79 0.0 0.0 0.00 1.14 0.00 95 1015.0
20260903080502 23 79 0.0 0.0 0.00 1.14 0.00 95 1014.9
20260903080004 23 79 0.0 0.0 0.00 1.14 0.00 95 1014.8
20260903075502 23 79 0.0 0.0 0.00 1.14 0.00 95 1014.9
20260903074503 23 79 0.0 0.0 0.00 1.14 0.00 95 1014.9
20260903074002 23 79 0.0 0.0 0.00 1.14 0.00 95 1014.9
20260903073502 23 79 0.0 0.0 0.00 1.14 0.00 95 1014.9
20260903073003 23 79 0.0 0.0 0.00 1.14 0.00 95 1014.9
20260903072503 23 79 0.0 0.0 0.00 1.14 0.00 95 1014.9
20260903072003 23 79 0.0 0.0 0.00 1.14 0.00 95 1014.9
20260903071503 23 79 0.0 0.0 0.00 1.14 0.00 95 1015.0
20260903070502 23 79 0.0 0.0 0.00 1.14 0.00 95 1015.0
20260903065503 23 85 0.0 0.0 0.00 1.14 0.00 95 1015.0
20260903065002 23 86 0.0 0.0 0.00 1.14 0.00 95 1015.2
20260903064503 23 192 0.0 0.0 0.00 1.14 0.00 95 1015.2
20260903064003 23 192 0.0 0.0 0.00 1.14 0.00 95 1015.1
20260903063004 23 192 0.0 0.0 0.00 1.14 0.00 95 1015.3
20260903062003 23 192 0.0 0.0 0.00 1.14 0.00 95 1015.2
20260903061503 23 192 0.0 0.0 0.00 1.14 0.00 95 1015.3
20260903061003 23 192 0.0 0.0 0.00 1.14 0.00 95 1015.4
20260903060502 23 192 0.0 0.0 0.00 1.14 0.00 95 1015.6
20260903060006 23 192 0.0 0.0 0.00 1.14 0.00 95 1015.6
20260903055503 23 188 0.0 0.0 0.00 1.14 0.00 95 1015.5
20260903055004 23 188 0.0 0.0 0.00 1.14 0.00 95 1015.6
20260903054005 23 188 0.0 0.0 0.00 1.14 0.00 95 1015.5
20260903053503 23 188 0.0 0.0 0.00 1.14 0.00 95 1015.5
20260903053004 23 188 0.0 0.0 0.00 1.14 0.00 95 1015.5
20260903052004 23 188 0.0 0.0 0.00 1.14 0.00 95 1015.5
20260903051503 23 188 0.0 0.0 0.00 1.14 0.00 95 1015.5
20260903050503 23 188 0.0 0.0 0.00 1.14 0.00 95 1015.5
20260903045503 23 211 0.0 0.0 0.00 1.14 1.14 95 1015.5
20260903045005 23 211 0.0 0.0 0.00 1.14 1.14 95 1015.7
20260903044504 23 211 0.0 0.0 0.00 1.14 1.14 95 1015.6
20260903044004 23 211 0.0 0.0 0.00 1.14 1.14 95 1015.8
20260903043503 23 211 0.0 0.0 0.00 1.14 1.14 95 1015.7
20260903043005 23 211 0.0 0.0 0.00 1.14 1.14 95 1015.7
20260903042503 23 211 0.0 0.0 0.00 1.14 1.14 95 1015.8
20260903042004 24 212 0.0 0.0 0.00 1.14 1.14 94 1015.7
20260903041505 24 211 0.0 0.0 0.00 1.14 1.14 94 1015.8
20260903041004 24 211 0.0 0.0 0.00 1.14 1.14 94 1015.8
20260903040503 24 211 0.0 0.0 0.00 1.14 1.14 94 1015.9
20260903040008 24 211 0.0 0.0 0.00 1.14 1.14 94 1015.9
20260903035503 24 211 0.0 0.0 0.00 1.14 1.14 94 1016.0
20260903035004 24 212 0.0 0.0 0.00 1.14 1.14 94 1015.9
20260903034503 24 211 0.0 0.0 0.00 1.14 1.14 94 1016.0
20260903033504 24 211 0.0 0.0 0.00 1.14 1.14 94 1015.9
20260903033004 24 212 0.0 0.0 0.00 1.14 1.14 94 1015.8
20260903032503 24 211 0.0 0.0 0.00 1.14 1.14 94 1015.8
20260903032004 24 211 0.0 0.0 0.00 1.14 1.14 94 1016.1
20260903031504 24 212 0.0 0.0 0.00 1.14 1.14 94 1016.1
20260903030503 25 211 0.0 0.0 0.00 1.14 1.14 93 1015.8
20260903025502 25 211 0.0 0.0 0.00 1.14 1.14 94 1015.6
20260903025005 25 211 0.0 0.0 0.00 1.14 1.14 94 1015.6
20260903024504 25 211 0.0 0.0 0.00 1.14 1.14 94 1015.5
20260903024003 25 211 0.0 0.0 0.00 1.14 1.14 94 1015.4
20260903023503 25 211 0.0 0.0 0.00 1.14 1.14 94 1015.2
20260903022504 25 212 0.0 0.0 0.00 1.14 1.14 94 1015.2
20260903022004 25 211 0.0 0.0 0.00 1.14 1.14 93 1015.1
20260903021506 25 211 0.0 0.0 0.00 1.14 1.14 93 1015.0
20260903021003 25 211 0.0 0.0 0.00 1.14 1.14 94 1015.0
20260903020502 25 211 0.0 0.0 0.00 1.14 1.14 94 1014.8
20260903020007 25 211 0.0 0.0 0.00 1.14 1.14 94 1014.8
20260903015003 25 211 0.0 0.0 0.00 1.14 1.14 93 1014.7
20260903014503 25 211 0.0 0.0 0.00 1.14 1.14 93 1014.6
20260903014004 25 211 0.0 0.0 0.00 1.14 1.14 93 1014.5
20260903013506 25 211 0.0 0.0 0.00 1.14 1.14 93 1014.8
20260903013006 25 211 0.0 0.0 0.00 1.14 1.14 93 1014.9
20260903012003 25 211 0.0 0.0 0.00 1.14 1.14 92 1015.0
20260903011505 25 211 0.0 0.0 0.00 1.14 1.14 92 1015.0
20260903011004 26 212 0.0 0.0 0.00 1.14 1.14 92 1014.9
20260903010006 26 212 0.0 0.0 0.00 1.14 1.14 92 1015.2
20260903005004 26 211 0.0 0.0 0.00 1.14 1.14 91 1015.2
20260903004503 26 211 0.0 0.0 0.00 1.14 1.14 91 1015.1
20260903004003 26 212 0.0 0.0 0.00 1.14 1.14 91 1015.0
20260903003004 26 211 0.0 0.0 0.00 1.14 1.14 90 1015.0
20260903002503 26 211 0.0 0.0 0.00 1.14 1.14 90 1014.9
20260903001503 26 211 0.0 0.0 0.00 1.14 1.14 90 1014.9
20260903001004 26 212 0.0 0.0 0.00 1.14 1.14 90 1015.0
20260903000503 26 211 0.0 0.0 0.00 1.14 1.14 90 1015.0
20260902235503 26 211 0.0 0.0 0.00 1.14 1.14 89 1014.9
20260902235004 27 212 0.0 0.0 0.00 1.14 1.14 90 1014.9
20260902234503 27 212 0.0 0.0 0.00 1.14 1.14 90 1014.9
20260902234004 27 211 0.0 0.0 0.00 1.14 1.14 89 1015.1
20260902233503 27 211 0.0 0.0 0.00 1.14 1.14 90 1015.1
20260902231504 27 168 0.0 0.0 0.00 1.14 1.14 89 1014.8
20260902231004 27 167 0.0 0.0 0.00 1.14 1.14 88 1014.5
20260902230502 27 257 0.0 0.0 0.00 1.14 1.14 90 1014.7
20260902230007 27 257 0.0 0.0 0.00 1.14 1.14 89 1014.6
20260902225503 27 257 0.0 1.6 0.00 1.14 1.14 89 1014.6
20260902225004 27 257 0.0 3.2 0.00 1.14 1.14 89 1014.7
20260902224504 27 257 0.0 3.2 0.00 1.14 1.14 88 1014.6
20260902224008 27 211 0.0 0.0 0.00 1.14 1.14 88 1014.7
20260902223004 27 217 0.0 3.2 0.00 1.14 1.14 88 1014.8
20260902221504 27 175 0.0 8.0 0.00 1.14 1.14 89 1014.9
20260902221004 27 247 0.0 1.6 0.00 1.14 1.14 90 1014.9
20260902220006 27 247 0.0 1.6 0.00 1.14 1.14 90 1015.0
20260902215503 27 248 0.0 4.8 0.00 1.14 1.14 89 1015.1
20260902215004 27 222 0.0 0.0 0.00 1.14 1.14 89 1015.1
20260902214004 27 240 0.0 0.0 0.00 1.14 1.14 90 1015.1
20260902213503 27 182 0.0 0.0 0.00 1.14 1.14 90 1015.0
20260902213004 27 182 0.0 0.0 0.00 1.14 1.14 91 1015.2
20260902212503 27 169 0.0 0.0 0.00 1.14 1.14 91 1015.2
20260902212004 26 177 0.0 0.0 0.00 1.14 1.14 92 1015.3
20260902211503 26 177 0.0 0.0 0.00 1.14 1.14 92 1015.2
20260902211003 26 177 0.0 0.0 0.00 1.14 1.14 91 1015.5
20260902210502 26 177 0.0 0.0 0.00 1.14 1.14 93 1015.5
20260902210007 26 178 0.0 0.0 0.00 1.14 1.14 92 1015.5